Weather History for Denver, CO

Change the Weather History Date:

Friday, April 5, 2013

  Actual Average (KDEN) Record (KDEN)
Temperature  
Mean Temperature 60 °F 45 °F  
Max Temperature 71 °F 59 °F 82 °F (1991)
Min Temperature 48 °F 31 °F 12 °F (1983)
Degree Days  
Heating Degree Days 6 20  
Month to date heating degree days 102  
Since 1 July heating degree days 5304  
Cooling Degree Days 0 0  
Month to date cooling degree days 0  
Year to date cooling degree days 0  
Growing Degree Days 10 (Base 50)    
Moisture  
Dew Point 29 °F    
Average Humidity 39    
Maximum Humidity 50    
Minimum Humidity 15    
Precipitation  
Precipitation 0.00 in 0.04 in 1.00 in (1909)
Month to date precipitation 0.18  
Year to date precipitation 1.88  
Snow  
Snow 0.00 in - - ()
Month to date snowfall  
Since 1 July snowfall  
Snow Depth -    
Sea Level Pressure  
Sea Level Pressure 29.92 in    
Wind  
Wind Speed 12 mph (SSW)    
Max Wind Speed 23 mph    
Max Gust Speed 33 mph    
Visibility 10 miles    
Events      
T = Trace of Precipitation, MM = Missing Value Source: NWS Daily Summary

Daily Weather History Graph

Daily Weather History Graph

Search for Another Location

Airport:

Trip Planner

Search our weather history database for the weather conditions in past years. The results will help you decide how hot, cold, wet, or windy it might be!

Date:

Astronomy

Apr. 05, 2013 Rise Set
Actual Time 6:35 AM MDT 7:26 PM MDT
Civil Twilight 6:08 AM MDT 7:54 PM MDT
Nautical Twilight 5:35 AM MDT 8:26 PM MDT
Astronomical Twilight 5:02 AM MDT 9:00 PM MDT
Moon 3:43 AM MDT (4/5) 2:53 PM MDT (4/5)
Length of Visible Light 13h 46m
Length of Day
12h 51m
Waning Crescent, 23% of the Moon is Illuminated
Apr 5
Waning Crescent
Apr 10
New
Apr 18
First Quarter
Apr 25
Full
May 2
Last Quarter

Hourly Weather History & Observations

Time (MDT) Temp. Dew Point Humidity Pressure Visibility Wind Dir Wind Speed Gust Speed Precip Events Conditions
12:18 AM 50.0 °F 30.2 °F 47% 30.02 in 10.0 mi SSW 12.7 mph - N/A   Clear
12:38 AM 51.8 °F 28.4 °F 41% 30.01 in 10.0 mi SSW 17.3 mph - N/A   Clear
12:58 AM 51.8 °F 28.4 °F 41% 30.00 in 10.0 mi South 6.9 mph - N/A   Clear
1:18 AM 48.2 °F 30.2 °F 50% 30.00 in 10.0 mi South 11.5 mph - N/A   Clear
1:38 AM 50.0 °F 28.4 °F 43% 29.99 in 10.0 mi South 13.8 mph - N/A   Clear
1:58 AM 51.8 °F 28.4 °F 41% 29.99 in 10.0 mi South 17.3 mph - N/A   Clear
2:18 AM 51.8 °F 28.4 °F 41% 29.98 in 10.0 mi South 17.3 mph - N/A   Clear
2:38 AM 51.8 °F 28.4 °F 41% 29.97 in 10.0 mi South 16.1 mph - N/A   Clear
2:58 AM 51.8 °F 28.4 °F 41% 29.96 in 10.0 mi South 12.7 mph - N/A   Clear
3:18 AM 50.0 °F 28.4 °F 43% 29.96 in 10.0 mi South 10.4 mph - N/A   Clear
3:37 AM 50.0 °F 28.4 °F 43% 29.95 in 10.0 mi South 11.5 mph - N/A   Clear
3:58 AM 51.8 °F 28.4 °F 41% 29.95 in 10.0 mi South 11.5 mph - N/A   Clear
4:17 AM 51.8 °F 30.2 °F 44% 29.95 in 10.0 mi South 10.4 mph - N/A   Clear
4:38 AM 51.8 °F 28.4 °F 41% 29.95 in 10.0 mi SSW 12.7 mph - N/A   Clear
4:58 AM 50.0 °F 30.2 °F 47% 29.95 in 10.0 mi South 9.2 mph - N/A   Clear
5:18 AM 50.0 °F 30.2 °F 47% 29.95 in 10.0 mi SSW 12.7 mph - N/A   Clear
5:38 AM 51.8 °F 28.4 °F 41% 29.95 in 10.0 mi SSW 12.7 mph - N/A   Clear
5:58 AM 51.8 °F 28.4 °F 41% 29.95 in 10.0 mi SSW 9.2 mph - N/A   Clear
6:18 AM 51.8 °F 28.4 °F 41% 29.95 in 10.0 mi SSW 10.4 mph - N/A   Clear
6:37 AM 51.8 °F 28.4 °F 41% 29.95 in 10.0 mi SSW 11.5 mph - N/A   Clear
6:58 AM 51.8 °F 28.4 °F 41% 29.95 in 10.0 mi SW 10.4 mph - N/A   Clear
8:47 AM 57.2 °F 28.4 °F 33% 29.93 in 50.0 mi SW 10.4 mph - N/A   Mostly Cloudy
10:55 AM 66.2 °F 19.4 °F 17% 29.91 in 50.0 mi SSW 4.6 mph - N/A   Mostly Cloudy
11:50 AM 66.2 °F 21.2 °F 18% 29.89 in 50.0 mi South 3.5 mph - N/A   Mostly Cloudy
12:58 PM 68.0 °F 19.4 °F 16% 29.84 in 50.0 mi SSE 3.5 mph - N/A   Mostly Cloudy
1:50 PM 71.6 °F 21.2 °F 15% 29.81 in 50.0 mi Calm Calm - N/A   Mostly Cloudy
2:53 PM 71.6 °F 23.0 °F 16% 29.78 in 50.0 mi East 5.8 mph - N/A   Mostly Cloudy
3:53 PM 71.6 °F 23.0 °F 16% 29.75 in 50.0 mi East 6.9 mph - N/A   Mostly Cloudy
8:56 PM 60.8 °F 32.0 °F 34% 29.83 in 10.0 mi NNW 23.0 mph 28.8 mph N/A   Overcast
9:19 PM 57.2 °F 33.8 °F 41% 29.85 in 10.0 mi NW 23.0 mph 29.9 mph N/A   Mostly Cloudy
9:38 PM 55.4 °F 35.6 °F 47% 29.86 in 10.0 mi WNW 17.3 mph 32.2 mph N/A   Mostly Cloudy
9:58 PM 53.6 °F 33.8 °F 47% 29.85 in 10.0 mi West 16.1 mph 33.4 mph N/A   Mostly Cloudy
10:18 PM 51.8 °F 33.8 °F 50% 29.85 in 10.0 mi West 11.5 mph - N/A   Mostly Cloudy
10:38 PM 53.6 °F 33.8 °F 47% 29.85 in 10.0 mi WNW 9.2 mph 18.4 mph N/A   Mostly Cloudy
10:58 PM 53.6 °F 33.8 °F 47% 29.86 in 10.0 mi West 15.0 mph - N/A   Overcast
11:17 PM 53.6 °F 33.8 °F 47% 29.86 in 10.0 mi West 12.7 mph - N/A   Mostly Cloudy
11:38 PM 51.8 °F 33.8 °F 50% 29.87 in 10.0 mi NNW 9.2 mph - N/A   Scattered Clouds
11:58 PM 51.8 °F 33.8 °F 50% 29.88 in 10.0 mi North 9.2 mph 21.9 mph N/A   Clear